Weather in Zimari

Russia / Altai Krai     53°11′09″N   83°27′52″E
temp.,
°C
wind,
m/s
gust,
m/s
humid.,
%
clouds,
%
prec.,
mm/h
press.,
hPa
HPBL,
m
24 october, sun
sun2401:00+6sw13207194 0.3 10221076
04:00+6sw131965100 0.1 1022984
07:00+6sw132059100 0.1 1022920
10:00+7sw121958100 0.0 1023900
13:00+8sw111755100 0.0 1023896
16:00+9sw11165272 0.0 1023955
19:00+7sw9166038 0.0 1025592
22:00+8sw71564100 0.0 1025450
25 october, mon
mon2501:00+8sw71658100 0.0 1024449
04:00+8ssw61454100 0.0 1022463
07:00+8sw71654100 0.0 1021473
10:00+7sw71653100 0.0 1021546
13:00+11sw9154285 0.0 1019802
16:00+12sw8144177 0.0 1018878
19:00+10sw5124896 0.0 1019331
22:00+8sw495751 0.0 1020190
26 october, tue
tue2601:00+6sw346136 0.0 102068
04:00+5s356253 0.0 101878
07:00+5s4760100 0.0 1017115
10:00+7s4955100 0.0 1014221
13:00+11s6947100 0.0 1011394
16:00+14ssw91630100 0.0 1008904
19:00+12sw81733100 0.0 1009672
22:00+11sw8173891 0.0 1009579
27 october, wed
wed2701:00+9w61152100 0.0 1013615
04:00+4w61094100 0.7 1018781
07:00+3nw5860100 0.9 1022851
10:00+2nw4557100 0.0 1025739
13:00+3nw3343100 0.0 1025928
16:00+3wnw3436100 0.0 10251028
19:00+1wnw234720 0.0 102752
22:00−1w345584 0.0 102868
28 october, thu
thu2801:00−2wnw33565 0.0 103034
04:00−2w2255100 0.0 103114
07:00−3sw2254100 0.0 103212
10:00−1ssw2347100 0.0 1032138
13:00+2ssw333568 0.0 1032661
16:00+3ssw34325 0.0 1031866
19:000s35455 0.0 103186
22:00−2s485926 0.0 1030146